Simultaneous Nadir Overpasses (SNOs) Predictions

Prediction of SNOs between GOES-16 and NPP Satellite Orbit:

Table of predicted SNOs for the next 14.0 days since TLE Epoch: 7/13/2024
Index Date Time (GOES-16) GOES-16 Lat,Lon NPP Lat,Lon Distance(km) Time Diff (sec)
1 07/13/2024 18:08:02 -0.04, -75.20 0.83, -71.25 450.18 80
2 07/15/2024 06:32:33 0.04, -75.21 0.31, -76.53 150.17 80
3 07/16/2024 06:11:09 0.04, -75.22 -0.70, -72.01 365.98 80
4 07/17/2024 18:35:47 -0.03, -75.22 -0.48, -77.32 239.24 80
5 07/18/2024 18:14:24 -0.02, -75.22 0.53, -72.80 276.97 80
6 07/20/2024 06:38:53 0.02, -75.24 0.65, -78.07 323.07 80
7 07/21/2024 06:17:30 0.01, -75.24 -0.37, -73.55 193.30 80
8 07/22/2024 18:42:08 -0.01, -75.25 -0.80, -78.86 411.20 80
9 07/23/2024 18:20:45 -0.02, -75.26 0.22, -74.34 106.00 80
10 07/25/2024 06:45:13 0.03, -75.29 1.01, -79.60 492.35 80
11 07/26/2024 06:23:49 0.03, -75.30 -0.01, -75.08 25.15 80
